SR 24 @ Millsboro Pond, Millsboro DE USA current weather conditions

sailwx.info

Wind from 263 at 3 knots gusting 6

Air temperature 8.6° C
Dewpoint 1.1° C

Last reported at 2020-Feb-24 13:45 UTC.
Time now 2020-Feb-24 14:49 UTC

Location: N 38°36' W 075°17'.
View on Google Maps.

See reports from other nearby stations

  
Tides and Currents Weather Stations Pressure Air Temp Water Temp Dewpoint Dewpoint Depression Visibility Wind Speed Wind Dir Waves Ship Positions
date/time (UTC)wind fromknots sea level pressurealtimeterstation pressurevisibilityair tempwater tempwave heightnotes
2020-Feb-24 13:45 263 3 gusting 6 8.6
2020-Feb-24 13:40 257 4 gusting 6 8.2
2020-Feb-24 13:35 259 4 gusting 6 8.3
2020-Feb-24 13:30 256 3 gusting 5 8.3
2020-Feb-24 13:25 252 1 gusting 3 8.3
2020-Feb-24 13:20 257 1 gusting 4 8.1
2020-Feb-24 13:15 242 2 gusting 4 7.6
2020-Feb-24 13:10 233 1 gusting 4 7.1
2020-Feb-24 13:05 221 1 gusting 4 7.1
2020-Feb-24 13:00 269 1 gusting 3 6.6
2020-Feb-24 12:55 300 1 7.0
2020-Feb-24 12:50 6.7
2020-Feb-24 12:45 6.3
2020-Feb-24 12:40 5.6
2020-Feb-24 12:35 5.1
2020-Feb-24 12:30 4.6
2020-Feb-24 12:25 4.6
2020-Feb-24 12:20 4.1
2020-Feb-24 12:15 3.9
2020-Feb-24 12:10 3.6
2020-Feb-24 12:05 3.4
2020-Feb-24 12:00 3.4
2020-Feb-24 11:55 3.6
2020-Feb-24 11:50 329 0 gusting 3 3.6
2020-Feb-24 11:45 326 0 3.7
2020-Feb-24 11:40 3.5
2020-Feb-24 11:35 3.0
2020-Feb-24 11:30 2.9
2020-Feb-24 11:25 121 1 gusting 1 2.9
2020-Feb-24 11:20 130 1 gusting 1 2.9
2020-Feb-24 11:15 113 1 gusting 1 2.9
2020-Feb-24 11:10 119 1 gusting 2 2.9
2020-Feb-24 11:05 118 1 gusting 2 3.0
2020-Feb-24 11:00 120 0 3.1
2020-Feb-24 10:55 3.4
2020-Feb-24 10:50 3.4
2020-Feb-24 10:45 189 1 gusting 1 3.9
2020-Feb-24 10:40 175 1 gusting 1 3.6
2020-Feb-24 10:35 3.4
2020-Feb-24 10:30 137 0 3.6
2020-Feb-24 10:25 3.6
2020-Feb-24 10:20 162 0 3.9
2020-Feb-24 10:15 4.0
2020-Feb-24 10:10 151 0 gusting 1 4.1
2020-Feb-24 10:05 4.1
2020-Feb-24 10:00 183 0 4.3
2020-Feb-24 09:55 4.7
2020-Feb-24 09:50 5.1
2020-Feb-24 09:45 5.1
2020-Feb-24 09:40 237 1 gusting 3 5.1
2020-Feb-24 09:35 246 1 gusting 3 5.2
2020-Feb-24 09:30 5.2
2020-Feb-24 09:25 237 1 gusting 3 5.2
2020-Feb-24 09:20 220 1 gusting 3 5.3
2020-Feb-24 09:15 218 2 gusting 3 5.3
2020-Feb-24 09:10 210 1 gusting 2 5.1
2020-Feb-24 09:05 4.8
2020-Feb-24 09:00 5.1
2020-Feb-24 08:55 5.3
2020-Feb-24 08:50 214 1 gusting 2 5.6
2020-Feb-24 08:45 5.8
2020-Feb-24 08:40 252 1 gusting 3 6.0
2020-Feb-24 08:35 6.1
2020-Feb-24 08:30 223 1 gusting 4 6.2
2020-Feb-24 08:25 228 1 gusting 4 6.5
2020-Feb-24 08:20 246 2 gusting 4 6.5
2020-Feb-24 08:15 232 1 gusting 5 6.5
2020-Feb-24 08:10 265 2 gusting 5 6.6
2020-Feb-24 08:05 227 2 gusting 7 6.6
2020-Feb-24 08:00 234 2 gusting 7 6.6
2020-Feb-24 07:55 225 2 gusting 6 6.5
2020-Feb-24 07:50 211 2 gusting 6 6.5
2020-Feb-24 07:45 224 2 gusting 6 6.5
2020-Feb-24 07:40 211 2 gusting 5 6.5
2020-Feb-24 07:35 215 2 gusting 5 6.5
2020-Feb-24 07:30 215 2 gusting 6 6.5
2020-Feb-24 07:25 209 2 gusting 6 6.6
2020-Feb-24 07:20 212 2 gusting 5 6.6
2020-Feb-24 07:15 211 2 gusting 5 6.5
2020-Feb-24 07:10 212 2 gusting 6 6.6
2020-Feb-24 07:05 204 2 gusting 6 6.6
2020-Feb-24 07:00 216 2 gusting 5 6.6
2020-Feb-24 06:55 218 2 gusting 6 6.6
2020-Feb-24 06:50 208 3 gusting 6 6.6
2020-Feb-24 06:45 210 3 gusting 5 6.6
2020-Feb-24 06:40 205 3 gusting 5 6.5
2020-Feb-24 06:35 211 2 gusting 5 6.3
2020-Feb-24 06:30 204 2 gusting 5 6.5
2020-Feb-24 06:25 216 2 gusting 5 6.5
2020-Feb-24 06:20 216 2 gusting 5 6.5
2020-Feb-24 06:15 215 2 gusting 5 6.6
2020-Feb-24 06:10 221 2 gusting 6 6.6
2020-Feb-24 06:05 219 3 gusting 6 6.7
2020-Feb-24 06:00 215 2 gusting 5 6.6
2020-Feb-24 05:55 208 2 gusting 5 6.1
2020-Feb-24 05:50 206 3 gusting 5 6.1
2020-Feb-24 05:45 211 1 gusting 5 6.0
2020-Feb-24 05:40 208 1 gusting 5 5.6
2020-Feb-24 05:35 237 1 gusting 5 5.6
2020-Feb-24 05:30 215 1 gusting 3 5.6
2020-Feb-24 05:25 205 2 gusting 4 5.6
2020-Feb-24 05:20 207 1 gusting 4 5.6
2020-Feb-24 05:15 215 1 gusting 3 5.6
2020-Feb-24 05:10 5.5
2020-Feb-24 05:05 210 1 gusting 3 5.3
2020-Feb-24 05:00 189 1 gusting 3 5.6
2020-Feb-24 04:55 203 2 gusting 3 5.6
2020-Feb-24 04:50 185 1 gusting 2 5.6
2020-Feb-24 04:45 206 1 gusting 4 5.8
2020-Feb-24 04:40 200 1 gusting 4 6.1
2020-Feb-24 04:35 223 1 gusting 3 6.1
2020-Feb-24 04:30 208 1 gusting 4 6.1
2020-Feb-24 04:25 218 2 gusting 5 6.1
2020-Feb-24 04:20 216 2 gusting 5 6.2
2020-Feb-24 04:15 199 2 gusting 4 6.0
2020-Feb-24 04:10 187 1 gusting 3 5.8
2020-Feb-24 04:05 183 1 gusting 3 5.7
2020-Feb-24 04:00 193 1 gusting 3 5.8
2020-Feb-24 03:55 183 1 gusting 3 5.8
2020-Feb-24 03:50 179 1 gusting 4 6.0
2020-Feb-24 03:45 197 2 gusting 4 6.1
2020-Feb-24 03:40 191 2 gusting 3 6.1
2020-Feb-24 03:35 196 2 gusting 4 6.1
2020-Feb-24 03:30 203 2 gusting 5 6.1
2020-Feb-24 03:25 205 2 gusting 5 6.1
2020-Feb-24 03:20 206 2 gusting 5 6.1
2020-Feb-24 03:15 208 2 gusting 5 6.1
2020-Feb-24 03:10 209 2 gusting 5 6.1
2020-Feb-24 03:05 197 2 gusting 6 6.1
2020-Feb-24 03:00 220 2 gusting 6 6.1
2020-Feb-24 02:55 211 2 gusting 5 6.0
2020-Feb-24 02:50 216 3 gusting 6 6.0
2020-Feb-24 02:45 206 3 gusting 6 6.0
2020-Feb-24 02:40 217 2 gusting 5 5.8
2020-Feb-24 02:35 210 2 gusting 7 6.0
2020-Feb-24 02:30 209 2 gusting 7 5.8
2020-Feb-24 02:25 205 2 gusting 7 5.8
2020-Feb-24 02:20 212 3 gusting 7 5.7
2020-Feb-24 02:15 201 2 gusting 5 5.6
2020-Feb-24 02:10 221 2 gusting 4 5.6
2020-Feb-24 02:05 235 1 gusting 4 5.3
2020-Feb-24 02:00 228 2 gusting 4 5.5
2020-Feb-24 01:55 211 2 gusting 4 5.3
2020-Feb-24 01:50 208 2 gusting 4 5.1
2020-Feb-24 01:45 197 1 gusting 3 5.1
2020-Feb-24 01:40 182 1 gusting 4 5.1
2020-Feb-24 01:35 198 2 gusting 4 5.2
2020-Feb-24 01:30 196 1 gusting 3 5.0
2020-Feb-24 01:25 161 1 gusting 2 5.0
2020-Feb-24 01:20 163 0 gusting 3 5.0
2020-Feb-24 01:15 168 1 gusting 3 5.1
2020-Feb-24 01:10 161 1 gusting 3 5.1
2020-Feb-24 01:05 175 1 gusting 3 5.1
2020-Feb-24 01:00 171 1 gusting 3 5.1
2020-Feb-24 00:55 173 1 gusting 3 5.2
2020-Feb-24 00:50 181 1 gusting 5 5.5
2020-Feb-24 00:45 171 2 gusting 5 5.5
2020-Feb-24 00:40 187 2 gusting 5 5.6
2020-Feb-24 00:35 183 1 gusting 3 5.6
2020-Feb-24 00:30 169 1 gusting 3 5.5
2020-Feb-24 00:25 172 1 gusting 3 5.5
2020-Feb-24 00:20 171 1 gusting 3 5.6
2020-Feb-24 00:15 157 1 gusting 3 5.7
2020-Feb-24 00:10 175 1 gusting 3 5.8
2020-Feb-24 00:05 168 1 gusting 3 6.1
2020-Feb-24 00:00 162 2 gusting 3 6.1
2020-Feb-23 23:55 166 2 gusting 3 6.2
2020-Feb-23 23:50 166 2 gusting 3 6.5
2020-Feb-23 23:45 161 1 gusting 4 6.5
2020-Feb-23 23:40 154 2 gusting 4 6.5
2020-Feb-23 23:35 144 1 gusting 2 6.6
2020-Feb-23 23:30 147 1 gusting 2 6.8
2020-Feb-23 23:25 144 1 gusting 2 7.1
2020-Feb-23 23:20 141 2 gusting 3 7.2
2020-Feb-23 23:15 137 2 gusting 3 7.3
2020-Feb-23 23:10 137 2 gusting 3 7.6
2020-Feb-23 23:05 143 2 gusting 3 7.6
2020-Feb-23 23:00 145 2 gusting 4 7.7
2020-Feb-23 22:55 149 1 gusting 4 8.0
2020-Feb-23 22:50 151 2 gusting 5 8.1
2020-Feb-23 22:45 151 3 gusting 5 8.3
2020-Feb-23 22:40 145 2 gusting 4 8.5
2020-Feb-23 22:35 136 2 gusting 4 8.7
2020-Feb-23 22:30 142 2 gusting 6 9.0
2020-Feb-23 22:25 154 3 gusting 6 9.1
2020-Feb-23 22:20 154 3 gusting 8 9.5
2020-Feb-23 22:15 153 3 gusting 8 9.7
2020-Feb-23 22:10 148 3 gusting 7 10.0
2020-Feb-23 22:05 151 3 gusting 7 10.2
2020-Feb-23 22:00 151 4 gusting 8 10.3
2020-Feb-23 21:55 152 3 gusting 9 10.6
2020-Feb-23 21:50 139 4 gusting 10 10.8
2020-Feb-23 21:45 148 6 gusting 10 10.9
2020-Feb-23 21:40 149 3 gusting 9 11.2
2020-Feb-23 21:35 156 3 gusting 10 11.4
2020-Feb-23 21:30 159 4 gusting 10 11.7
2020-Feb-23 21:25 150 4 gusting 8 11.8
2020-Feb-23 21:20 137 3 gusting 10 12.1
2020-Feb-23 21:15 158 4 gusting 12 11.9
2020-Feb-23 21:10 154 6 gusting 12 11.9
2020-Feb-23 21:05 153 6 gusting 11 12.2
2020-Feb-23 21:00 160 3 gusting 10 12.4
2020-Feb-23 20:55 139 6 gusting 11 12.4
2020-Feb-23 20:50 149 6 gusting 11 12.7
2020-Feb-23 20:45 155 5 gusting 10 12.7
2020-Feb-23 20:40 141 4 gusting 11 12.8
2020-Feb-23 20:35 142 4 gusting 11 12.8
2020-Feb-23 20:30 134 7 gusting 10 12.8
2020-Feb-23 20:25 137 4 gusting 11 12.7
2020-Feb-23 20:20 123 6 gusting 11 12.9
2020-Feb-23 20:15 182 5 gusting 8 13.1
2020-Feb-23 20:10 185 3 gusting 10 13.1
2020-Feb-23 20:05 135 6 gusting 10 13.1
2020-Feb-23 20:00 198 4 gusting 9 13.2
2020-Feb-23 19:55 180 4 gusting 9 13.3
2020-Feb-23 19:50 149 6 gusting 9 13.2
2020-Feb-23 19:45 165 3 gusting 10 13.2
2020-Feb-23 19:40 125 7 gusting 10 12.9
2020-Feb-23 19:35 141 4 gusting 10 12.9
2020-Feb-23 19:30 179 4 gusting 10 13.2
2020-Feb-23 19:25 178 4 gusting 7 12.9
2020-Feb-23 19:20 183 3 gusting 7 12.9
2020-Feb-23 19:15 140 4 gusting 10 12.8
2020-Feb-23 19:10 160 3 gusting 10 12.8
2020-Feb-23 19:05 166 3 gusting 9 13.1
2020-Feb-23 19:00 173 2 gusting 9 12.8
2020-Feb-23 18:55 178 4 gusting 8 12.2
2020-Feb-23 18:50 133 5 gusting 8 12.7
2020-Feb-23 18:45 215 4 gusting 9 12.8
2020-Feb-23 18:40 164 4 gusting 10 12.4
2020-Feb-23 18:35 136 6 gusting 10 12.2
2020-Feb-23 18:30 154 4 gusting 9 12.6
2020-Feb-23 18:25 148 5 gusting 9 12.2
2020-Feb-23 18:20 132 6 gusting 13 11.8
2020-Feb-23 18:15 139 3 gusting 13 11.9
2020-Feb-23 18:10 125 9 gusting 11 11.6
2020-Feb-23 18:05 128 6 gusting 10 11.6
2020-Feb-23 18:00 123 6 gusting 10 11.6
2020-Feb-23 17:55 113 6 gusting 10 11.7
2020-Feb-23 17:50 102 5 gusting 10 11.7
2020-Feb-23 17:45 110 6 gusting 10 11.3
2020-Feb-23 17:40 130 6 gusting 10 11.7
2020-Feb-23 17:35 131 7 gusting 9 11.4
2020-Feb-23 17:30 136 5 gusting 10 11.6
2020-Feb-23 17:25 105 5 gusting 10 11.8
2020-Feb-23 17:20 119 6 gusting 8 11.3
2020-Feb-23 17:15 137 4 gusting 8 11.2
2020-Feb-23 17:10 130 4 gusting 8 11.1
2020-Feb-23 17:05 117 4 gusting 8 11.3
2020-Feb-23 17:00 133 4 gusting 8 11.2
2020-Feb-23 16:55 107 5 gusting 8 11.1
2020-Feb-23 16:50 135 5 gusting 8 11.2
2020-Feb-23 16:45 136 4 gusting 8 11.1
2020-Feb-23 16:40 117 6 gusting 8 10.8
2020-Feb-23 16:35 121 6 gusting 8 10.9
2020-Feb-23 16:30 121 4 gusting 7 10.8
2020-Feb-23 16:25 130 4 gusting 8 10.7
2020-Feb-23 16:20 133 5 gusting 8 10.6
2020-Feb-23 16:15 110 3 gusting 8 10.9
2020-Feb-23 16:10 138 5 gusting 8 10.4
2020-Feb-23 16:05 122 6 gusting 8 10.4
2020-Feb-23 16:00 122 6 gusting 9 10.2
2020-Feb-23 15:55 118 5 gusting 9 10.2
2020-Feb-23 15:50 131 3 gusting 7 10.2
2020-Feb-23 15:45 140 4 gusting 7 10.1
2020-Feb-23 15:40 139 4 gusting 6 10.0
2020-Feb-23 15:35 136 3 gusting 5 9.7
2020-Feb-23 15:30 137 2 gusting 5 9.6
2020-Feb-23 15:25 131 3 gusting 6 9.5
2020-Feb-23 15:20 130 4 gusting 6 9.1
2020-Feb-23 15:15 139 3 gusting 4 9.0
2020-Feb-23 15:10 130 3 gusting 4 8.5
2020-Feb-23 15:05 126 3 gusting 4 8.2
2020-Feb-23 15:00 122 2 gusting 4 8.0
2020-Feb-23 14:55 127 2 gusting 4 7.8
2020-Feb-23 14:50 145 2 gusting 3 8.0
2020-Feb-23 14:45 129 2 gusting 3 8.1
2020-Feb-23 14:40 124 1 gusting 2 8.3
2020-Feb-23 14:35 135 1 8.6
2020-Feb-23 14:30 6.8
2020-Feb-23 14:25 244 1 gusting 1 6.3
2020-Feb-23 14:20 5.8
2020-Feb-23 14:15 290 1 gusting 2 5.5
2020-Feb-23 14:10 253 1 gusting 2 5.2
2020-Feb-23 14:05 250 1 gusting 2 5.6
2020-Feb-23 14:00 5.8
2020-Feb-23 13:55 5.0
2020-Feb-23 13:50 4.1
2020-Feb-23 13:45 3.9
2020-Feb-23 13:40 3.2
2020-Feb-23 13:35 275 1 2.7
2020-Feb-23 13:30 2.6
2020-Feb-23 13:25 2.6
2020-Feb-23 13:20 2.2
2020-Feb-23 13:15 149 0 2.1
2020-Feb-23 13:10 1.4
2020-Feb-23 13:05 1.4
2020-Feb-23 13:00 1.1
2020-Feb-23 12:55 203 1 gusting 2 0.7
2020-Feb-23 12:50 184 0 0.6
2020-Feb-23 12:45 0.6
2020-Feb-23 12:40 0.1
2020-Feb-23 12:35 -0.5
2020-Feb-23 12:30 -0.7
2020-Feb-23 12:25 -0.5
2020-Feb-23 12:20 -1.1
2020-Feb-23 12:15 -1.9
2020-Feb-23 12:10 -1.9
2020-Feb-23 12:05 -2.1
2020-Feb-23 12:00 -2.4
2020-Feb-23 11:55 -2.6
2020-Feb-23 11:50 -2.9
2020-Feb-23 11:45 -2.8
2020-Feb-23 11:40 -2.8
2020-Feb-23 11:35 -2.8
2020-Feb-23 11:30 -2.8
2020-Feb-23 11:25 -2.8
2020-Feb-23 11:20 -2.6
2020-Feb-23 11:15 126 0 gusting 2 -2.6
2020-Feb-23 11:10 128 1 gusting 2 -2.6
2020-Feb-23 11:05 124 1 -2.4
2020-Feb-23 11:00 -2.3
2020-Feb-23 10:55 292 1 gusting 2 -2.1
2020-Feb-23 10:50 293 1 gusting 2 -1.8
2020-Feb-23 10:45 289 1 gusting 2 -1.8
2020-Feb-23 10:40 293 0 -1.8
2020-Feb-23 10:35 -1.9
2020-Feb-23 10:30 -1.9
2020-Feb-23 10:25 -1.9
2020-Feb-23 10:20 -1.8
2020-Feb-23 10:15 -1.9
2020-Feb-23 10:10 294 1 -1.8
2020-Feb-23 10:05 -1.6
2020-Feb-23 10:00 -1.6
2020-Feb-23 09:55 -1.6
2020-Feb-23 09:50 -1.6
2020-Feb-23 09:45 -1.6
2020-Feb-23 09:40 -1.5
2020-Feb-23 09:35 -1.3
2020-Feb-23 09:30 176 1 gusting 1 -1.3
2020-Feb-23 09:25 172 1 -1.1
2020-Feb-23 09:20 -1.0
2020-Feb-23 09:15 -1.0
2020-Feb-23 09:10 -0.9
2020-Feb-23 09:05 -0.9
2020-Feb-23 09:00 -0.9
2020-Feb-23 08:55 -0.9
2020-Feb-23 08:50 -0.9
2020-Feb-23 08:45 -0.8
2020-Feb-23 08:40 -0.5
2020-Feb-23 08:35 -0.4
2020-Feb-23 08:30 -0.5
2020-Feb-23 08:25 -0.5
2020-Feb-23 08:20 279 1 gusting 2 -0.8
2020-Feb-23 08:15 282 1 gusting 2 -0.9
2020-Feb-23 08:10 301 1 gusting 2 -0.9
2020-Feb-23 08:05 -0.7
2020-Feb-23 08:00 -0.5
2020-Feb-23 07:55 314 1 gusting 2 -0.4
2020-Feb-23 07:50 326 1 gusting 2 -0.0
2020-Feb-23 07:45 300 1 gusting 2 0.1
2020-Feb-23 07:40 289 1 gusting 2 0.1
2020-Feb-23 07:35 299 1 0.1
2020-Feb-23 07:30 0.1
2020-Feb-23 07:25 0.1
2020-Feb-23 07:20 284 1 0.1
2020-Feb-23 07:15 0.3
2020-Feb-23 07:10 177 0 0.7
2020-Feb-23 07:05 206 1 gusting 1 0.7
2020-Feb-23 07:00 199 1 gusting 2 0.7
2020-Feb-23 06:55 0.8
2020-Feb-23 06:50 201 1 0.7
2020-Feb-23 06:45 0.7
2020-Feb-23 06:40 194 0 0.6
2020-Feb-23 06:35 0.7
2020-Feb-23 06:30 1.1
2020-Feb-23 06:25 281 1 gusting 3 1.1
2020-Feb-23 06:20 271 2 gusting 3 1.2
2020-Feb-23 06:15 272 1 gusting 3 1.5
2020-Feb-23 06:10 259 1 gusting 4 1.5
2020-Feb-23 06:05 264 1 gusting 4 1.6
2020-Feb-23 06:00 240 2 gusting 4 1.6
2020-Feb-23 05:55 255 2 gusting 3 1.6
2020-Feb-23 05:50 261 1 gusting 4 1.7
2020-Feb-23 05:45 255 2 gusting 4 1.9
2020-Feb-23 05:40 245 2 gusting 4 1.9
2020-Feb-23 05:35 250 2 gusting 4 1.7
2020-Feb-23 05:30 248 2 gusting 5 1.7
2020-Feb-23 05:25 233 2 gusting 5 1.7
2020-Feb-23 05:20 225 2 gusting 4 1.7
2020-Feb-23 05:15 233 1 gusting 5 1.7
2020-Feb-23 05:10 250 2 gusting 5 1.6
2020-Feb-23 05:05 254 1 gusting 4 1.6
2020-Feb-23 05:00 233 1 gusting 4 1.6
2020-Feb-23 04:55 239 2 gusting 4 1.6
2020-Feb-23 04:50 247 1 gusting 4 1.7
2020-Feb-23 04:45 258 1 gusting 3 1.7
2020-Feb-23 04:40 261 1 gusting 3 1.6
2020-Feb-23 04:35 244 1 gusting 3 1.7
2020-Feb-23 04:30 255 1 gusting 2 1.9
2020-Feb-23 04:25 2.0
2020-Feb-23 04:20 239 1 gusting 3 2.0
2020-Feb-23 04:15 2.0
2020-Feb-23 04:10 256 1 gusting 2 2.1
2020-Feb-23 04:05 230 0 gusting 2 2.1
2020-Feb-23 04:00 214 1 gusting 2 2.2
2020-Feb-23 03:55 223 1 gusting 2 2.2
2020-Feb-23 03:50 261 1 gusting 2 2.2
2020-Feb-23 03:45 244 1 gusting 3 2.4
2020-Feb-23 03:40 2.5
2020-Feb-23 03:35 255 2 gusting 4 2.5
2020-Feb-23 03:30 2.5
2020-Feb-23 03:25 233 1 gusting 3 2.6
2020-Feb-23 03:20 227 1 gusting 2 2.6
2020-Feb-23 03:15 207 1 gusting 2 2.6
2020-Feb-23 03:10 210 1 gusting 3 2.6
2020-Feb-23 03:05 210 1 gusting 3 2.6
2020-Feb-23 03:00 264 1 gusting 2 2.6
2020-Feb-23 02:55 245 0 gusting 2 2.6
2020-Feb-23 02:50 209 1 gusting 4 2.6
2020-Feb-23 02:45 205 1 gusting 4 2.9
2020-Feb-23 02:40 224 1 gusting 3 2.9
2020-Feb-23 02:35 229 1 gusting 3 2.9
2020-Feb-23 02:30 220 1 gusting 4 3.0
2020-Feb-23 02:25 230 1 gusting 4 3.1
2020-Feb-23 02:20 230 2 gusting 4 3.1
2020-Feb-23 02:15 239 2 gusting 4 3.1
2020-Feb-23 02:10 232 1 gusting 3 3.1
2020-Feb-23 02:05 231 2 gusting 4 3.2
2020-Feb-23 02:00 230 1 gusting 4 3.2
2020-Feb-23 01:55 203 1 gusting 3 3.0
2020-Feb-23 01:50 195 1 gusting 4 3.1
2020-Feb-23 01:45 207 1 gusting 4 3.5
2020-Feb-23 01:40 205 1 gusting 3 3.6
2020-Feb-23 01:35 208 1 gusting 3 3.6
2020-Feb-23 01:30 214 1 gusting 3 3.6
2020-Feb-23 01:25 201 1 gusting 4 3.5
2020-Feb-23 01:20 195 1 gusting 4 3.4
2020-Feb-23 01:15 201 1 gusting 3 3.9
2020-Feb-23 01:10 225 1 gusting 3 4.0
2020-Feb-23 01:05 207 1 gusting 3 4.1
2020-Feb-23 01:00 208 2 gusting 4 4.2
2020-Feb-23 00:55 212 1 gusting 5 4.5
2020-Feb-23 00:50 225 1 gusting 5 4.5
2020-Feb-23 00:45 222 2 gusting 5 4.6
2020-Feb-23 00:40 223 1 gusting 3 4.3
2020-Feb-23 00:35 209 1 gusting 3 4.2
2020-Feb-23 00:30 201 1 gusting 3 4.0
2020-Feb-23 00:25 201 1 gusting 3 4.3
2020-Feb-23 00:20 4.6
2020-Feb-23 00:15 204 1 gusting 2 4.5
2020-Feb-23 00:10 203 1 gusting 2 5.1
2020-Feb-23 00:05 226 1 gusting 3 5.2
2020-Feb-23 00:00 217 1 gusting 3 5.3
2020-Feb-22 23:55 220 1 gusting 4 5.3
2020-Feb-22 23:50 203 2 gusting 4 5.6
2020-Feb-22 23:45 204 1 gusting 3 5.8
2020-Feb-22 23:40 238 1 gusting 4 6.0
2020-Feb-22 23:35 225 2 gusting 4 6.1
2020-Feb-22 23:30 224 2 gusting 5 6.2
2020-Feb-22 23:25 259 2 gusting 5 6.5
2020-Feb-22 23:20 265 2 gusting 5 6.6
2020-Feb-22 23:15 275 2 gusting 6 6.6
2020-Feb-22 23:10 272 3 gusting 6 6.7
2020-Feb-22 23:05 270 3 gusting 6 7.0
2020-Feb-22 23:00 258 1 gusting 5 7.1
2020-Feb-22 22:55 241 2 gusting 5 7.2
2020-Feb-22 22:50 263 2 gusting 6 7.3
2020-Feb-22 22:45 261 2 gusting 9 7.6
2020-Feb-22 22:40 271 2 gusting 9 7.7
2020-Feb-22 22:35 268 4 gusting 8 8.0
2020-Feb-22 22:30 268 4 gusting 7 8.1
2020-Feb-22 22:25 269 4 gusting 9 8.3
2020-Feb-22 22:20 267 4 gusting 9 8.6
2020-Feb-22 22:15 260 5 gusting 8 8.7
2020-Feb-22 22:10 283 6 gusting 10 8.7
2020-Feb-22 22:05 271 4 gusting 12 9.0
2020-Feb-22 22:00 261 6 gusting 12 9.1
2020-Feb-22 21:55 267 5 gusting 12 9.1
2020-Feb-22 21:50 287 6 gusting 16 9.2
2020-Feb-22 21:45 275 6 gusting 16 9.1
2020-Feb-22 21:40 277 5 gusting 12 9.3
2020-Feb-22 21:35 272 4 gusting 12 9.2
2020-Feb-22 21:30 271 6 gusting 13 9.2
2020-Feb-22 21:25 267 8 gusting 15 9.3
2020-Feb-22 21:20 287 7 gusting 15 9.1
2020-Feb-22 21:15 283 11 gusting 14 9.3
2020-Feb-22 21:10 273 8 gusting 14 9.5
2020-Feb-22 21:05 264 8 gusting 14 9.6
2020-Feb-22 21:00 283 7 gusting 13 9.5
2020-Feb-22 20:55 295 9 gusting 13 9.6
2020-Feb-22 20:50 281 9 gusting 14 9.8
2020-Feb-22 20:45 283 9 gusting 14 9.7
2020-Feb-22 20:40 269 7 gusting 13 10.2
2020-Feb-22 20:35 271 7 gusting 13 10.0
2020-Feb-22 20:30 260 6 gusting 14 10.3
2020-Feb-22 20:25 293 7 gusting 14 10.0
2020-Feb-22 20:20 264 6 gusting 13 10.2
2020-Feb-22 20:15 254 6 gusting 13 10.2
2020-Feb-22 20:10 313 6 gusting 13 10.3
2020-Feb-22 20:05 315 5 gusting 13 10.6
2020-Feb-22 20:00 301 8 gusting 15 10.0
2020-Feb-22 19:55 320 8 gusting 15 10.2
2020-Feb-22 19:50 285 6 gusting 15 10.2
2020-Feb-22 19:45 299 9 gusting 16 9.6
2020-Feb-22 19:40 305 9 gusting 16 9.7
2020-Feb-22 19:35 310 9 gusting 13 9.7
2020-Feb-22 19:30 309 8 gusting 15 9.6
2020-Feb-22 19:25 301 11 gusting 15 9.2
2020-Feb-22 19:20 310 9 gusting 15 9.3
2020-Feb-22 19:15 312 8 gusting 13 9.6
2020-Feb-22 19:10 291 10 gusting 15 9.2
2020-Feb-22 19:05 301 10 gusting 15 9.3
2020-Feb-22 19:00 297 10 gusting 15 9.2
2020-Feb-22 18:55 301 9 gusting 16 9.3
2020-Feb-22 18:50 304 9 gusting 16 9.3
2020-Feb-22 18:45 303 8 gusting 13 9.3
2020-Feb-22 18:40 313 7 gusting 16 9.2
2020-Feb-22 18:35 283 11 gusting 16 8.8
2020-Feb-22 18:30 286 7 gusting 14 8.8
2020-Feb-22 18:25 301 5 gusting 16 8.8
2020-Feb-22 18:20 302 11 gusting 16 8.5
2020-Feb-22 18:15 303 9 gusting 15 8.8
2020-Feb-22 18:10 292 9 gusting 15 8.3
2020-Feb-22 18:05 332 5 gusting 14 8.6
2020-Feb-22 18:00 294 8 gusting 14 8.6
2020-Feb-22 17:55 295 7 gusting 14 8.0
2020-Feb-22 17:50 299 9 gusting 17 8.1
2020-Feb-22 17:45 277 9 gusting 17 8.0
2020-Feb-22 17:40 289 8 gusting 14 7.7
2020-Feb-22 17:35 301 9 gusting 14 7.8
2020-Feb-22 17:30 290 7 gusting 15 8.1
2020-Feb-22 17:25 279 9 gusting 15 7.6
2020-Feb-22 17:20 278 9 gusting 15 7.5
2020-Feb-22 17:15 293 10 gusting 15 7.3
2020-Feb-22 17:10 321 8 gusting 15 7.5
2020-Feb-22 17:05 289 9 gusting 15 7.1
2020-Feb-22 17:00 283 8 gusting 16 6.8
2020-Feb-22 16:55 306 8 gusting 16 6.7
2020-Feb-22 16:50 284 8 gusting 15 6.7
2020-Feb-22 16:45 295 9 gusting 15 6.8
2020-Feb-22 16:40 283 9 gusting 15 6.6
2020-Feb-22 16:35 286 11 gusting 14 6.6
2020-Feb-22 16:30 283 8 gusting 12 6.6
2020-Feb-22 16:25 296 7 gusting 14 6.5
2020-Feb-22 16:20 303 8 gusting 14 6.3
2020-Feb-22 16:15 295 7 gusting 15 6.2
2020-Feb-22 16:10 301 9 gusting 15 6.1
2020-Feb-22 16:05 311 9 gusting 14 6.1
2020-Feb-22 16:00 314 6 gusting 16 6.1
2020-Feb-22 15:55 301 11 gusting 16 5.8
2020-Feb-22 15:50 320 7 gusting 17 5.5
2020-Feb-22 15:45 281 11 gusting 17 5.6
2020-Feb-22 15:40 313 10 gusting 14 5.6
2020-Feb-22 15:35 290 6 gusting 11 5.7
2020-Feb-22 15:30 311 6 gusting 11 5.3
2020-Feb-22 15:25 305 7 gusting 12 5.1
2020-Feb-22 15:20 300 8 gusting 12 4.8
2020-Feb-22 15:15 293 5 gusting 11 4.6
2020-Feb-22 15:10 282 8 gusting 11 4.3
2020-Feb-22 15:05 294 6 gusting 9 4.3
2020-Feb-22 15:00 299 6 gusting 10 4.2
2020-Feb-22 14:55 285 5 gusting 10 4.1
2020-Feb-22 14:50 301 5 gusting 11 4.0
2020-Feb-22 14:45 295 6 gusting 11 3.5
2020-Feb-22 14:40 305 6 gusting 11 3.5
2020-Feb-22 14:35 292 6 gusting 11 3.4
2020-Feb-22 14:30 311 6 gusting 11 3.1
2020-Feb-22 14:25 306 7 gusting 13 2.9
2020-Feb-22 14:20 303 8 gusting 13 2.6
2020-Feb-22 14:15 305 7 gusting 11 2.6
2020-Feb-22 14:10 308 6 gusting 13 2.1
2020-Feb-22 14:05 301 7 gusting 13 2.0
2020-Feb-22 14:00 309 7 gusting 11 1.6